FM-5

Last updated on Wed Sep 09 2026 00:02:58 GMT+0000 (Coordinated Universal Time)

1 35493U 09034A 26251.49934219 -.00000221 00000+0 00000+0 0 9991 2 35493 0.0485 272.6389 0000561 139.6173 28.9151 1.00270502 47477
UTC large
Height (km)
Speed (km/s)
/
Latitude / Longitude
Inclination (degrees)
Orbital Period (minutes)
Azimuth
Elevation
Range (km)
Doppler Factor

Next 0 passes for location: London (51.5072 / 0.1276)

No passes found over London.
FM-5